User: anonymous   Login
Location: Newark
(22.8000°N, 86.1800°E)
Time: 09:11:00
(UTC+00:00)
Language:

ITUPSAT 1 - Orbit

View from above orbital plane
View from above orbital plane
View from above satellite
View from above satellite

Ground track
Ground track

The orbit data is extracted from the following two-line orbital elements,

1 35935U 09051E   20157.78305630 +.00000069 +00000-0 +27120-4 0  9998
2 35935 098.6206 341.7573 0008293 166.6949 193.4468 14.55616911567979
Epoch (UTC): 05 June 2020 18:47:36
Eccentricity: 0.0008293
inclination: 98.6206°
perigee height: 701 km
apogee height: 713 km
right ascension of ascending node: 341.7573°
argument of perigee: 166.6949°
revolutions per day: 14.55616911
mean anomaly at epoch: 193.4468°
orbit number at epoch: 56797

The dashed part of the orbit path shows where the satellite is in the earth's shadow,  

DLR